Vorticity
6 6 7 10 7 4 6 1 4 3 6 4 0 7 8 11 5 -2 1 10 5 10 3 9 7 5 3 3 5 6 3 4 6 6 5 5 6 5 5 7 7 -4 4 8 5 4 4 4 4
8 8 9 6 2 5 10 2 5 20 4 -3 2 8 2 1 8 2 11 9 11 5 3 5 8 5 3 3 4 6 5 3 4 5 5 5 8 7 5 7 7 6 4 4 4 4 4 4 4
10 9 12 12 14 13 11 -1 3 4 10 11 2 -3 5 2 9 -1 -2 3 -0 -3 8 6 5 5 4 3 3 4 5 3 3 4 5 6 7 5 6 7 5 5 4 5 5 4 4 4 5
10 12 10 6 3 3 3 4 2 2 6 4 3 10 10 4 2 3 1 4 -4 -10 -0 8 6 4 4 3 3 3 5 3 2 6 9 4 4 4 5 7 5 5 5 5 5 4 5 5 6
11 13 11 11 12 1 5 9 6 5 1 2 5 2 2 8 7 10 4 2 6 -1 0 5 9 3 4 4 3 3 3 4 2 2 9 4 4 5 5 6 6 6 5 5 5 4 5 5 6
18 13 12 9 2 -3 0 -0 -1 -0 6 5 10 9 10 12 8 5 4 8 10 5 1 4 9 12 7 4 3 3 3 4 5 8 5 5 5 5 5 5 5 6 5 6 5 5 5 5 7
16 16 15 9 12 3 2 1 0 1 11 18 14 13 14 14 10 8 10 6 3 5 10 2 13 4 11 13 4 3 4 3 4 6 -1 5 6 6 5 5 5 5 6 6 5 5 6 5 7
7 6 7 4 3 6 10 6 9 9 7 5 4 5 0 2 16 15 17 15 7 7 12 4 -0 8 5 7 12 6 7 4 3 0 0 1 4 5 6 6 6 5 5 6 6 6 6 5 6
8 6 6 5 5 1 -0 2 6 7 5 7 11 13 5 5 6 1 5 12 14 12 8 16 10 2 7 0 7 6 1 8 5 4 2 1 3 5 6 6 6 6 6 5 6 7 6 5 6
7 8 8 7 5 4 6 7 7 7 8 11 6 6 6 5 2 3 4 3 5 11 16 10 6 15 2 5 -0 4 3 2 5 7 1 2 2 4 5 6 6 7 6 6 7 7 7 5 6
7 5 6 8 6 7 8 9 8 5 8 5 8 8 7 7 9 7 6 4 3 3 7 8 18 10 14 -2 10 3 11 1 0 2 3 5 3 3 5 5 6 6 7 6 8 8 8 6 6
10 7 7 9 12 12 -2 2 7 8 9 9 10 3 5 8 11 13 11 12 10 4 5 4 5 13 13 17 3 4 1 16 2 1 1 6 3 4 4 5 6 6 7 7 8 9 8 6 6
3 7 15 -1 14 -1 13 3 8 15 8 7 3 5 7 10 9 11 12 11 19 16 5 7 4 3 13 11 16 1 1 15 1 7 4 1 3 3 4 5 6 7 6 7 8 9 8 7 6
3 22 -7 15 12 8 3 7 14 8 5 9 3 4 8 11 13 14 9 10 13 18 15 3 9 12 5 13 8 10 6 9 -10 17 1 15 7 11 3 4 7 7 7 7 9 7 7 7 7
5 4 17 -6 1 8 0 9 11 13 5 4 5 9 13 15 11 10 13 10 8 13 9 19 15 8 10 8 11 13 10 -0 11 5 -2 7 -1 24 1 4 7 8 8 7 9 8 7 7 7
7 -9 16 18 -2 -1 9 3 8 12 11 11 15 21 21 19 13 14 15 8 10 12 16 16 14 17 13 12 12 11 9 23 -27 16 8 -1 13 -3 5 3 6 8 8 8 8 7 6 6 7
2 1 5 14 16 8 7 3 18 19 13 21 24 31 22 24 27 27 30 29 20 20 15 12 11 11 8 12 14 12 11 9 15 -24 26 14 -10 3 9 -1 5 8 9 9 8 7 7 7 7
-3 0 -1 9 15 -5 12 6 30 26 16 15 12 5 5 10 8 12 6 14 18 12 11 17 13 10 16 15 7 12 10 11 8 8 -10 -14 -12 5 35 -4 3 8 8 9 8 8 7 7 7
4 4 6 7 -7 8 10 7 30 26 4 2 -3 11 10 1 2 5 14 0 -9 2 10 8 14 18 11 15 17 9 12 11 15 8 7 7 -12 17 10 11 3 6 8 9 9 7 7 8 8
6 5 1 19 -5 10 14 0 -3 35 -15 -0 3 -0 4 19 8 1 -0 -1 -2 0 -1 3 3 -2 17 15 15 15 13 14 8 16 11 5 25 16 7 12 2 6 6 8 9 8 8 9 8
7 9 2 5 11 28 2 33 20 11 4 25 24 7 3 2 6 5 -1 4 7 6 2 4 -0 5 1 1 18 15 9 10 14 8 12 14 2 8 -6 -1 13 5 7 8 8 10 9 9 9
13 1 4 3 22 -8 -2 -7 38 2 11 7 3 -7 6 11 14 6 1 6 5 4 -0 -2 3 -1 -4 4 3 16 16 12 9 13 18 17 21 4 30 27 36 1 5 8 8 10 10 9 7
1 2 7 30 23 28 31 16 -52 20 2 3 -15 23 5 -1 -1 -2 -5 -1 -4 0 -4 -4 -10 -4 -8 17 15 3 17 14 13 10 8 16 7 -16 15 -3 1 1 5 7 9 10 9 8 7
4 7 47 1 20 18 15 5 -12 36 -11 24 12 -6 2 -7 2 7 12 7 7 5 -6 8 21 42 15 43 10 4 18 14 11 11 9 21 7 7 13 22 -16 21 5 7 9 9 8 7 8
-4 16 11 18 13 -10 -11 26 -37 2 7 -6 16 -6 -1 2 8 24 26 47 40 47 47 39 42 28 21 22 19 9 19 14 14 11 9 12 8 7 -6 -2 58 9 6 6 8 8 8 9 9
22 11 8 10 5 -32 71 20 -36 47 5 9 -9 6 -0 17 36 33 14 16 17 26 28 19 28 30 44 41 7 11 16 8 8 14 21 9 6 21 1 39 13 3 5 6 7 8 8 9 8
0 -4 -3 3 37 24 8 -0 -3 -17 -10 -5 15 -16 2 -19 60 32 15 17 24 23 25 26 31 32 28 10 6 17 5 16 13 15 30 16 -0 29 -4 19 16 11 5 6 7 8 9 9 8
21 1 2 13 9 16 15 11 -34 -2 4 20 -5 -2 7 -16 11 20 9 26 22 20 18 14 14 20 16 13 13 13 20 21 -1 30 11 -6 15 10 12 5 3 7 8 8 7 9 8 8 10
10 10 2 9 3 1 5 -19 3 -9 17 -4 -3 12 10 63 10 27 12 17 9 18 7 5 14 11 8 5 10 10 9 7 13 8 12 0 -1 15 -16 1 11 7 5 8 9 8 9 9 6
26 20 2 -3 10 -12 -25 -42 56 -7 -3 15 11 2 7 55 21 11 12 47 19 13 17 9 8 9 8 10 11 28 12 21 13 31 -13 11 33 22 39 5 12 9 9 9 9 9 9 8 8
Height
3142 3142 3142 3143 3147 3142 3142 3143 3143 3142 3143 3144 3144 3144 3144 3145 3146 3148 3146 3145 3147 3148 3149 3149 3150 3151 3152 3154 3154 3155 3155 3155 3155 3155 3156 3156 3156 3155 3155 3156 3157 3157 3158 3158 3158 3159 3159 3159 3158
3140 3140 3140 3140 3142 3139 3140 3140 3140 3141 3141 3142 3142 3141 3142 3143 3145 3145 3144 3144 3146 3147 3147 3148 3148 3149 3150 3152 3153 3153 3154 3154 3154 3154 3154 3154 3155 3155 3155 3155 3155 3156 3157 3158 3158 3158 3158 3158 3158
3138 3137 3139 3138 3137 3138 3138 3139 3139 3140 3140 3141 3141 3140 3140 3141 3143 3143 3142 3142 3145 3146 3147 3147 3146 3147 3148 3150 3150 3151 3152 3153 3153 3152 3152 3153 3153 3154 3155 3155 3154 3155 3155 3156 3157 3158 3158 3157 3157
3135 3136 3137 3136 3136 3136 3136 3137 3137 3138 3137 3139 3140 3139 3139 3139 3140 3141 3139 3140 3144 3143 3144 3144 3145 3145 3146 3148 3148 3149 3149 3150 3151 3151 3151 3150 3152 3152 3153 3154 3154 3154 3154 3155 3156 3156 3156 3156 3155
3132 3132 3133 3133 3134 3134 3135 3135 3135 3134 3135 3135 3137 3135 3135 3137 3136 3136 3136 3137 3139 3140 3140 3141 3143 3143 3144 3145 3146 3146 3147 3147 3148 3149 3150 3150 3150 3151 3151 3152 3153 3154 3153 3154 3154 3154 3154 3155 3154
3130 3131 3131 3131 3132 3132 3132 3132 3131 3131 3133 3132 3132 3130 3131 3131 3132 3132 3132 3133 3135 3135 3136 3138 3139 3140 3141 3142 3143 3143 3144 3145 3146 3147 3148 3149 3149 3149 3150 3151 3151 3152 3152 3153 3153 3153 3153 3153 3153
3129 3129 3129 3130 3131 3130 3130 3130 3129 3129 3130 3128 3127 3125 3125 3126 3124 3126 3126 3127 3129 3130 3131 3133 3134 3135 3136 3138 3139 3140 3141 3142 3144 3145 3145 3146 3148 3148 3148 3149 3149 3149 3150 3151 3151 3151 3151 3152 3152
3129 3129 3129 3129 3128 3129 3128 3127 3126 3127 3126 3123 3123 3122 3121 3120 3118 3118 3121 3122 3122 3123 3125 3127 3129 3131 3132 3134 3135 3136 3137 3138 3140 3140 3141 3143 3144 3146 3147 3147 3147 3147 3148 3149 3149 3149 3149 3150 3150
3128 3128 3127 3127 3127 3127 3126 3124 3124 3124 3121 3120 3119 3118 3117 3113 3110 3111 3115 3117 3115 3116 3117 3119 3122 3124 3126 3128 3130 3131 3132 3134 3135 3137 3138 3139 3141 3143 3144 3145 3145 3145 3146 3146 3147 3147 3147 3148 3148
3128 3127 3125 3125 3124 3123 3122 3120 3118 3120 3118 3117 3114 3111 3110 3109 3106 3105 3106 3110 3111 3110 3111 3111 3114 3116 3119 3121 3123 3126 3127 3129 3131 3133 3134 3135 3137 3139 3140 3141 3143 3143 3144 3144 3144 3145 3145 3146 3147
3126 3125 3124 3122 3121 3119 3117 3117 3115 3113 3112 3110 3108 3108 3106 3104 3103 3099 3099 3100 3103 3104 3104 3104 3105 3107 3110 3113 3117 3118 3121 3124 3126 3127 3130 3131 3134 3135 3136 3138 3139 3140 3141 3141 3143 3143 3144 3144 3145
3124 3123 3121 3120 3118 3116 3114 3113 3112 3109 3106 3103 3101 3098 3098 3096 3094 3093 3091 3091 3095 3096 3097 3097 3098 3099 3101 3103 3107 3110 3114 3117 3120 3122 3125 3127 3130 3132 3132 3134 3135 3136 3138 3138 3140 3141 3142 3143 3143
3121 3120 3118 3117 3114 3112 3110 3109 3105 3105 3099 3097 3094 3091 3089 3087 3084 3084 3082 3082 3085 3086 3090 3089 3090 3092 3093 3095 3098 3101 3105 3109 3113 3114 3118 3122 3125 3127 3128 3129 3130 3132 3134 3135 3136 3138 3140 3141 3142
3120 3117 3116 3114 3111 3107 3103 3102 3099 3100 3093 3088 3086 3083 3080 3076 3075 3074 3074 3073 3075 3076 3078 3080 3080 3083 3084 3086 3089 3092 3095 3101 3101 3108 3110 3114 3118 3121 3124 3125 3126 3127 3129 3131 3133 3134 3136 3138 3139
3117 3116 3114 3110 3106 3102 3097 3095 3094 3091 3085 3079 3076 3072 3070 3068 3066 3065 3066 3066 3067 3069 3070 3070 3072 3075 3076 3079 3080 3083 3088 3090 3096 3097 3097 3101 3108 3113 3118 3120 3122 3123 3125 3127 3129 3131 3132 3135 3136
3116 3112 3108 3108 3104 3099 3095 3084 3088 3085 3076 3069 3066 3063 3061 3060 3058 3058 3058 3059 3059 3060 3062 3063 3065 3067 3069 3071 3072 3075 3078 3082 3083 3088 3080 3088 3096 3104 3109 3113 3116 3118 3120 3122 3125 3126 3128 3130 3132
3112 3109 3107 3103 3101 3095 3092 3080 3081 3076 3068 3062 3059 3056 3055 3054 3053 3052 3052 3053 3053 3053 3055 3056 3057 3060 3061 3063 3065 3067 3069 3073 3078 3079 3082 3081 3085 3091 3098 3105 3109 3113 3115 3118 3120 3122 3125 3126 3128
3111 3106 3102 3101 3097 3091 3085 3077 3072 3067 3061 3058 3056 3055 3053 3052 3051 3050 3050 3050 3050 3050 3050 3051 3051 3052 3053 3055 3056 3059 3061 3064 3069 3072 3078 3080 3078 3086 3092 3098 3103 3106 3109 3112 3116 3118 3120 3122 3124
3108 3105 3100 3099 3094 3084 3078 3072 3069 3063 3060 3057 3055 3053 3051 3049 3047 3048 3047 3046 3046 3046 3047 3046 3045 3045 3046 3047 3048 3050 3053 3057 3060 3064 3068 3074 3077 3079 3082 3089 3094 3099 3102 3107 3111 3113 3115 3117 3120
3107 3103 3098 3092 3089 3084 3073 3067 3065 3060 3058 3055 3051 3049 3046 3045 3043 3042 3042 3042 3041 3040 3039 3038 3038 3038 3038 3039 3040 3042 3045 3047 3052 3056 3062 3065 3068 3075 3080 3079 3084 3091 3095 3101 3106 3109 3111 3113 3116
3105 3100 3095 3090 3082 3078 3069 3058 3056 3057 3055 3051 3048 3045 3043 3041 3040 3038 3037 3034 3032 3030 3029 3029 3029 3028 3030 3032 3032 3034 3036 3040 3043 3047 3052 3058 3063 3068 3074 3077 3080 3086 3090 3095 3100 3104 3107 3110 3113
3099 3096 3092 3086 3082 3076 3073 3063 3053 3052 3050 3047 3045 3042 3039 3037 3034 3031 3029 3025 3023 3020 3018 3018 3018 3018 3018 3021 3024 3025 3028 3032 3037 3042 3046 3050 3056 3061 3064 3070 3073 3077 3084 3090 3096 3100 3103 3106 3109
3098 3093 3088 3082 3078 3075 3069 3067 3049 3048 3044 3042 3040 3037 3036 3034 3030 3025 3019 3012 3007 3004 3002 3004 3004 3002 3006 3009 3012 3016 3018 3023 3029 3034 3039 3042 3048 3055 3058 3063 3072 3073 3078 3085 3091 3095 3099 3103 3105
3094 3090 3083 3079 3076 3075 3066 3067 3044 3043 3041 3038 3036 3033 3029 3024 3018 3010 3001 2992 2985 2985 2983 2982 2982 2981 2987 2992 2998 3005 3009 3013 3018 3024 3030 3035 3041 3046 3052 3057 3065 3069 3074 3079 3086 3091 3095 3099 3101
3092 3089 3083 3082 3079 3072 3064 3063 3041 3040 3036 3033 3029 3025 3020 3012 3000 2989 2979 2973 2966 2961 2961 2962 2961 2963 2970 2978 2985 2994 3000 3005 3012 3017 3022 3028 3034 3041 3046 3051 3055 3065 3066 3073 3081 3087 3092 3095 3098
3090 3089 3089 3095 3085 3067 3061 3051 3037 3034 3031 3028 3026 3020 3012 3001 2986 2975 2968 2961 2957 2953 2951 2951 2952 2952 2956 2965 2977 2986 2993 2999 3004 3009 3015 3023 3029 3036 3039 3045 3055 3061 3062 3068 3076 3083 3088 3091 3094
3088 3087 3086 3083 3076 3072 3053 3043 3034 3030 3027 3024 3019 3010 3000 2989 2972 2964 2962 2956 2950 2947 2946 2945 2946 2948 2955 2963 2972 2981 2987 2992 2997 3003 3010 3018 3024 3030 3037 3044 3050 3055 3060 3065 3072 3080 3084 3087 3090
3086 3086 3084 3082 3082 3073 3049 3040 3031 3024 3021 3016 3010 3001 2991 2983 2973 2965 2958 2952 2948 2947 2946 2945 2947 2951 2957 2962 2971 2977 2982 2988 2994 2999 3006 3014 3020 3025 3028 3038 3047 3053 3062 3067 3072 3077 3081 3084 3088
3084 3081 3081 3080 3076 3072 3058 3030 3027 3022 3018 3010 3004 2996 2987 2975 2968 2960 2955 2949 2946 2945 2946 2947 2949 2952 2956 2963 2968 2973 2978 2983 2989 2995 3003 3009 3016 3021 3028 3036 3047 3052 3059 3064 3070 3074 3078 3082 3086
3077 3077 3078 3077 3070 3063 3057 3018 3021 3019 3015 3009 2998 2990 2981 2972 2966 2959 2952 2946 2944 2945 2946 2947 2949 2952 2956 2960 2965 2969 2975 2980 2986 2991 2998 3004 3010 3016 3025 3038 3045 3049 3055 3063 3070 3074 3077 3081 3084